Miscellaneous Local Product
Issued by NWS Hastings, NE

Home | Current Version | Previous Version | Graphics & Text | Print | Product List | Glossary On
Versions: 1 2 3 4 5 6 7 8 9 10 11 12 13 14 15 16 17 18 19 20 21 22 23 24 25 26 27 28 29 30 31 32 33 34 35 36 37 38 39 40 41 42 43 44 45 46 47 48 49 50
000
AXUS43 KGID 020002
MISGRI

GID CWA HOURLY WEATHER ROUNDUP
NATIONAL WEATHER SERVICE HASTINGS NE
600 PM CST SUN MAR 01 2015

NOTE: "FAIR" INDICATES FEW OR NO CLOUDS BELOW 12,000 FEET WITH NO
SIGNIFICANT WEATHER AND/OR OBSTRUCTIONS TO VISIBILITY.

...SOUTH CENTRAL NEBRASKA...

CITY           SKY/WX    TMP DP  RH WIND       PRES   REMARKS
GRAND ISLAND   CLEAR     36  13  38 N9        30.34R WCI  29
HASTINGS       CLEAR     37  11  34 N5        30.33R WCI  33
KEARNEY        CLEAR     37  12  35 N8        30.33R WCI  31
ORD            CLEAR     34   9  35 N9        30.32S WCI  27
YORK           CLEAR     37  14  38 NW8       30.34S WCI  31
AURORA         CLEAR     35  13  40 N6        30.34S WCI  30
LEXINGTON      PTCLDY    37  12  35 N5        30.32R WCI  34
HOLDREGE       MOCLDY    37   9  31 CALM      30.32R
HEBRON         PTCLDY    36  13  38 CALM      30.36S

...NEBRASKA PANHANDLE...

CITY           SKY/WX    TMP DP  RH WIND       PRES   REMARKS
CHADRON        CLEAR     32   7  35 NW12      30.27S WCI  23
ALLIANCE       CLEAR     33   8  35 N7        30.24S WCI  27
SCOTTSBLUFF    PTCLDY    33  10  38 SW6       30.24F WCI  28
SIDNEY         CLEAR     32  12  43 N3        30.25S

...WESTERN AND NORTH CENTRAL NEBRASKA...

CITY           SKY/WX    TMP DP  RH WIND       PRES   REMARKS
VALENTINE      CLEAR     32   6  33 N13G21    30.31S WCI  22
AINSWORTH      CLEAR     31   6  34 N9        30.31S WCI  23
ONEILL         CLOUDY    35   8  31 NW15      30.34R WCI  26
BROKEN BOW     CLEAR     37  11  34 N9        30.30S WCI  30
IMPERIAL         N/A     36  13  38 N5        30.28F WCI  32
NORTH PLATTE   CLEAR     37  10  32 NW9       30.29S WCI  30
MCCOOK         CLOUDY    38  10  31 NE5       30.31R WCI  34

...EASTERN NEBRASKA...

CITY           SKY/WX    TMP DP  RH WIND       PRES   REMARKS
NORFOLK        CLEAR     35   9  33 NW13      30.34R WCI  26
SO SIOUX CITY  PTCLDY    37  12  35 NW13      30.35R WCI  29
TEKAMAH        CLEAR     36  16  44 NW9       30.36R WCI  29
COLUMBUS       CLEAR     36  10  35 NW12      30.36S WCI  27
ALBION         FAIR      35   6  29 NW12      30.34R WCI  27
OMAHA EPPLEY   PTCLDY    35  17  47 NW9       30.36R WCI  28
OFFUTT AFB     CLEAR     34  16  47 NW5       30.35S WCI  30
MILLARD        PTCLDY    39  15  38 NW5       30.35S
LINCOLN        CLEAR     39  14  36 NW5       30.37S
NEBRASKA CITY  PTCLDY    34  11  38 NW5       30.37R WCI  30
BEATRICE       PTCLDY    34  16  47 CALM      30.37R
FALLS CITY     CLOUDY    36  17  46 CALM      30.37R

...NORTHERN KANSAS...

CITY           SKY/WX    TMP DP  RH WIND       PRES   REMARKS
GOODLAND       MOCLDY    32  17  54 NE7       30.27S WCI  26
HILL CITY      MOCLDY    35  20  54 S5        30.34S WCI  31
NORTON         CLEAR     36   7  30 NE6       30.32S WCI  31
PHILLIPSBURG   CLEAR     39  16  38 N5        30.34S
SMITH CENTER   CLEAR     36  14  41 N7        30.35S WCI  30
BELOIT         CLEAR     36  19  51 S5        30.37R WCI  32
HAYS           MOCLDY    32  14  47 SW5       30.36R WCI  27
RUSSELL        MOCLDY    32  20  61 N3        30.35R
CONCORDIA      MOCLDY    33  20  58 S5        30.36S WCI  29
SALINA         CLEAR     34  20  56 N7        30.40R WCI  28
TOPEKA         PTCLDY    33  21  61 NW7       30.41R WCI  27



USA.gov is the U.S. government's official web portal to all federal, state and local government web resources and services.